Location: Castillon
(43.0896°N, 0.2156°E)
Time: 10:17:46
(UTC+00:00)

Cosmos 1980 Rocket - Visible Passes

Search period start: 17 October 2021 00:00
Search period end: 27 October 2021 00:00
Orbit: 827 x 851 km, 71.0° (Epoch: 16 October)

Date Brightness Start Highest point End Pass type
(mag) Time Alt. Az. Time Alt. Az. Time Alt. Az.
17 Oct 4.8 02:11:21 13° NNE 02:13:23 15° NE 02:16:36 10° ENE visible
17 Oct 2.2 03:53:21 14° NNW 03:58:22 79° ENE 04:04:03 10° SSE visible
17 Oct 3.7 05:38:30 10° WNW 05:41:36 15° W 05:44:41 10° SW visible
17 Oct 2.7 18:44:14 10° SW 18:49:49 63° WNW 18:55:29 10° NNE visible
17 Oct 5.0 20:32:45 10° WNW 20:35:02 12° NW 20:37:21 10° NNW visible
18 Oct 4.9 01:59:06 13° ENE 01:59:06 13° ENE 02:00:36 10° ENE visible
18 Oct 2.3 03:41:04 49° N 03:42:38 74° ENE 03:48:18 10° SSE visible
18 Oct 3.6 05:23:02 11° WNW 05:25:55 16° W 05:29:17 10° SW visible
18 Oct 2.6 18:28:28 10° SW 18:34:04 67° WNW 18:39:46 10° NNE visible
18 Oct 5.0 20:16:40 10° WNW 20:19:14 13° NW 20:21:49 10° NNW visible
19 Oct 2.8 03:28:25 48° SE 03:28:25 48° SE 03:32:33 10° SSE visible
19 Oct 3.5 05:10:21 17° W 05:10:21 17° W 05:13:49 10° SW visible
19 Oct 2.5 18:12:42 10° SSW 18:18:20 71° WNW 18:24:03 10° NNE visible
19 Oct 4.9 20:00:37 10° WNW 20:03:26 14° NW 20:06:16 10° NNW visible
20 Oct 4.2 03:15:27 18° SE 03:15:27 18° SE 03:16:48 10° SE visible
20 Oct 4.0 04:57:22 13° SW 04:57:22 13° SW 04:58:20 10° SW visible
20 Oct 2.4 17:56:57 10° SSW 18:02:36 75° WNW 18:08:20 10° NNE visible
20 Oct 4.9 19:44:36 10° WNW 19:47:39 14° NW 19:50:41 10° N visible
21 Oct 2.4 17:41:13 10° SSW 17:46:52 80° WNW 17:52:37 10° NNE visible
21 Oct 4.8 19:28:36 10° W 19:31:50 15° NW 19:35:06 10° N visible
22 Oct 2.3 17:25:29 10° SSW 17:31:09 85° WNW 17:36:53 10° NNE visible
22 Oct 4.8 19:12:37 10° W 19:16:03 16° NW 19:19:29 10° N visible
23 Oct 4.8 18:56:40 10° W 19:00:15 17° NW 19:03:53 10° N visible
24 Oct 4.7 18:40:43 10° W 18:44:28 18° NW 18:48:15 10° N visible
25 Oct 4.6 18:24:46 10° W 18:28:41 19° NW 18:32:37 10° N visible
26 Oct 4.6 18:08:51 10° W 18:12:54 20° NW 18:16:59 10° N visible
